Regional Weather Roundup
Issued by NWS Northern Indiana

Home | Current Version | Previous Version | Graphics & Text | Print | Product List | Glossary On
Versions: 1 2 3 4 5 6 7 8 9 10 11 12 13 14 15 16 17 18 19 20 21 22 23 24 25 26 27 28 29 30 31 32 33 34 35 36 37 38 39 40 41 42 43 44 45 46 47 48 49 50
293
ASUS43 KIWX 211510
RWRIWX

KIWX WEATHER ROUNDUP
NATIONAL WEATHER SERVICE NORTHERN INDIANA
1000 AM EST SAT JAN 21 2017

NOTE: "FAIR" INDICATES FEW OR NO CLOUDS BELOW 12,000 FEET WITH NO
SIGNIFICANT WEATHER AND/OR OBSTRUCTIONS TO VISIBILITY.

* THESE STATIONS ARE NOT UNDER NWS QUALITY CONTROL. THEY ALSO MAY NOT
  REPORT WEATHER SUCH AS PRECIPITATION OR FOG.

INZ001>027-211600-
NORTHERN INDIANA

CITY           SKY/WX    TMP DP  RH WIND       PRES   REMARKS
GARY*          CLOUDY    50  50 100 SE8       29.55S FOG
VALPARAISO     FOG       50  50 100 S12       29.58S VSB 1/2
LAPORTE*       CLOUDY    48  48  99 S8        29.59S FOG
KNOX*          MOSUNNY   50  39  66 S13       29.58S
SOUTH BEND     CLOUDY    50  49  96 S10       29.60S FOG
ELKHART*       CLOUDY    50  48  93 S12       29.61S FOG
GOSHEN         MOSUNNY   51  47  86 S8        29.61S
ROCHESTER*     MOSUNNY   50  50 100 SE8       29.61F FOG
WARSAW*        PTSUNNY   50  48  93 S7        29.62S FOG
FORT WAYNE     PTSUNNY   51  47  86 S7        29.66R
PERU/GRISSOM   SUNNY     50  50 100 S13       29.60F
MARION*        MOSUNNY   48  48 100 S8        29.65S FOG

$$
INZ028>050-211600-
CENTRAL INDIANA

CITY           SKY/WX    TMP DP  RH WIND       PRES   REMARKS
LAFAYETTE      MOSUNNY   51  50  96 S5        29.60S
KOKOMO*        MOSUNNY   50  49  96 S12       29.63S FOG
MUNCIE*        MOSUNNY   54  50  86 S12       29.66R
INDIANAPOLIS   PTSUNNY   51  50  96 S7        29.64F

$$
MIZ043>046-050>051-056>058-064>065-071>073-077>080-211600-
SOUTHWEST LOWER MICHIGAN

CITY           SKY/WX    TMP DP  RH WIND       PRES   REMARKS
BENTON HARBOR  CLOUDY    52  49  89 SE9       29.57F FOG
COLDWATER*     FOG       47  47 100 S6        29.64R VSB 1
HILLSDALE*     FOG       45  45 100 S7        29.65R VSB<1/4
HOLLAND        CLOUDY    49  48  97 S9        29.59S
GRAND RAPIDS   FOG       44  42  93 E5        29.60F VSB 1/4
KALAMAZOO      CLOUDY    49  46  90 S8        29.62S FOG
STURGIS*       CLOUDY    49  48  97 SE7       29.62S FOG
THREE RIVERS*  CLOUDY    49  49  99 S8        29.63R FOG

$$
OHZ001>008-015>018-024>025-211600-
NORTHWEST OHIO

CITY           SKY/WX    TMP DP  RH WIND       PRES   REMARKS
DEFIANCE       MOSUNNY   48  46  93 S8        29.67S
FINDLAY        CLOUDY    52  47  83 S12       29.68S
TOLEDO EXPRESS SUNNY     49  48  97 S7        29.67S
TOLEDO METCALF MOSUNNY   51  49  92 S9        29.68F
LIMA           MOSUNNY   51  49  92 S9        29.68S

$$
AND FOR LAKE MICHIGAN COASTAL AND OPEN LAKE BUOY OBSERVATIONS

STATION/POSITION TEMP    WIND        PRES    VSBY  WAVE
                 AIR SEA DIR/SP/G                  HT/PER
                 (F)     (DEG/KT/KT) (MB)    (MI)  (FT/S)
CALUMET HARBOR    50     160/  8/ 12  999.8S
BURNS HARBOR      50     160/ 11/ 16 1001.7S

$$
&&




USA.gov is the U.S. government's official web portal to all federal, state and local government web resources and services.